Regional Weather Roundup
Issued by NWS Upton, NY

Current Version | Previous Version | Graphics & Text | Print | Product List | Glossary Off
Versions: 1 2 3 4 5 6 7 8 9 10 11 12 13 14 15 16 17 18 19 20 21 22 23 24 25 26 27 28 29 30 31 32 33 34 35 36 37 38 39 40 41 42 43 44 45 46 47 48 49

673
ASUS41 KOKX 181009
RWROKX

REGIONAL WEATHER ROUNDUP
NATIONAL WEATHER SERVICE NEW YORK NY
600 AM EDT WED OCT 18 2017

NOTE: "FAIR" INDICATES FEW OR NO CLOUDS BELOW 12,000 FEET WITH NO
SIGNIFICANT WEATHER AND/OR OBSTRUCTIONS TO VISIBILITY.

NYZ071-072-176-178-NJZ106-104-181100-
NEW YORK CITY METRO AREA

CITY           SKY/WX    TMP DP  RH WIND       PRES   REMARKS
Central Park   CLEAR     51  36  56 VRB5      30.31R
Bronx Bot Gard   N/A     48  36  61 S1        30.32R
LaGuardia APRT CLEAR     53  36  52 S6        30.29R
Kennedy INTL   CLEAR     51  41  68 W13       30.31R
Breezy Point     N/A     52 N/A N/A W10G16      N/A
Newark/Liberty CLEAR     45  38  76 SW7       30.30R
Teterboro      CLEAR     43  38  82 CALM      30.29R
$$

NYZ177-179-078>081-181100-
LONG ISLAND NEW YORK

CITY           SKY/WX    TMP DP  RH WIND       PRES   REMARKS
Jones Beach      N/A     55 N/A N/A W9G15       N/A
Matinecock PT    N/A     54 N/A N/A SW12        N/A
Farmingdale    CLEAR     48  40  73 W3        30.29R
MacArthur/ISP  CLEAR     46  40  79 W3        30.29R
Shirley        CLEAR     48  40  73 W3        30.29R
Mt Sinai Harb    N/A    N/A N/A N/A SW6         N/A
Westhampton    CLEAR     40  35  83 W5        30.30R
East Hampton   FAIR      44  37  79 CALM      30.28R
Montauk          N/A     55  42  61 W8        30.28R
$$

NYZ052-065-067-181100-
HUDSON VALLEY

CITY           SKY/WX    TMP DP  RH WIND       PRES   REMARKS
White Plains   CLEAR     46  35  65 NW6       30.27R
Larchmont Harb   N/A     52 N/A N/A W7          N/A
Croton On Huds   N/A     45 N/A N/A MISG        N/A
Newburgh       NOT AVBL
Montgomery     CLEAR     36  35  96 SW5       30.28R WCI  32
Poughkeepsie   CLEAR     46  35  65 S5        30.27R
Albany         CLEAR     45  35  68 S7        30.24R
$$

NJZ001-105-106-008-010-013-015-019>022-104-181100-
NEW JERSEY

CITY           SKY/WX    TMP DP  RH WIND       PRES   REMARKS
Newark/Liberty CLEAR     45  38  76 SW7       30.30R
Teterboro      CLEAR     43  38  82 CALM      30.29R
Caldwell       CLEAR     41  39  93 CALM      30.30R
Somerville     CLEAR     35  34  96 CALM      30.30R
Linden         FAIR      47  37  69 CALM      30.30S
Perth Amboy      N/A     48 N/A N/A W9          N/A
Sussex         CLEAR     36  34  92 CALM      30.29R
Andover          N/A     38  37  97 CALM      30.30R
Trenton        CLEAR     43  39  86 SW3       30.32R
Millville      CLEAR     39  38  96 CALM      30.34S
Atlantic City  CLEAR     45  41  86 W5        30.34R
Wrightstown    CLEAR     41  39  93 CALM      30.31R
Toms River       N/A     36  34  92 CALM      30.34R
Belmar         CLEAR     43  39  86 SW8       30.33R
$$

PAZ047>061-062-071-181100-
EASTERN PENNSYLVANIA

CITY           SKY/WX    TMP DP  RH WIND       PRES   REMARKS
Philadelphia   CLEAR     48  42  80 SW7       30.34R
Allentown      CLEAR     40  36  86 CALM      30.31R
Scranton       CLEAR     40  37  89 CALM      30.31R
$$

CTZ002-004>006-009-010-012-RIZ004-006-007-MAZ004-011-015-181100-
SOUTHERN NEW ENGLAND
 IN CT

CITY           SKY/WX    TMP DP  RH WIND       PRES   REMARKS
Bradley INTL   CLEAR     43  38  82 S8        30.25R
Hartford       CLEAR     45  39  79 S6        30.26R
Danbury        CLEAR     45  37  73 W5        30.28R
Wtrbury/Oxford CLEAR     44  36  73 CALM      30.27R
Norwalk Harbor   N/A     48 N/A N/A W6          N/A
Bridgeport     CLEAR     49  38  65 W3        30.28R
Meriden        CLEAR     37  36  96 CALM      30.27R
New Haven      CLEAR     52  38  58 W7        30.27R
Chester        FAIR      48  37  66 VRB5      30.26R
Groton         CLEAR     52  37  56 W13       30.26R
Wilimantic     CLOUDY    37  36  96 CALM      30.26S FOG

 IN RI

CITY           SKY/WX    TMP DP  RH WIND       PRES   REMARKS
Providence     CLEAR     45  40  82 S6        30.25R
Block Island   CLEAR     55  46  71 SW12      30.27R
Westerly       CLEAR     52  38  58 W6        30.27R
 IN MA

CITY           SKY/WX    TMP DP  RH WIND       PRES   REMARKS
Boston         CLEAR     49  38  65 SW15      30.21S
Worcester      CLEAR     43  33  68 W13       30.21R
Westfield      CLEAR     36  34  92 CALM      30.24R
Provincetown   CLEAR     53  43  68 W17       30.22R
Nantucket      CLEAR     56  45  66 W14       30.25S
$$

ANZ330-335-338-340-345-350-353-355-181100-
COASTAL MARINE OBSERVATIONS


STATION/POSITION TIME  SKY/WX   TEMP    WIND        PRES    VSBY  WAVE
                                AIR SEA DIR/SP/G                  HT/PER
                 (UTC)          (F)     (DEG/KT/KT) (MB)    (MI)  (FT/S)
NY HARB ENTRANCE 0850            56 65  250/ 17/ 19 1024.8          2/ 4
20 S FIRE ISLAND 0850            59 63  270/ 16/ 17 1025.6          3/ 4
GREAT SOUTH BAY  0930            58 61  260/ 14/ 17   N/A
15 E BARNEGAT LI 0930               66                N/A           3/11
HUDSON CANYON    0950            60 65  290/ 12/ 16 1025.8          3/10
KINGS POINT      0948            54 65  260/  5/  7 1026.4
EXECUTION ROCKS  0930            56     230/ 12/ 16   N/A
WESTERN LI SOUND 0849            56     260/ 14/ 19   N/A           1/ 3
CENTRAL LI SOUND NOT AVBL
EASTERN LI SOUND NOT AVBL
ROBBINS REEF     0948            50     270/  9/ 12 1026.5
$$


>>>>>>>>>>>>>>>>>>>>>>>>>>>> KEY <<<<<<<<<<<<<<<<<<<<<<<<<<<
>                                                          <
>     SKY/WX - Sky Condition/Present Weather               <
>     TMP    - Temperature in Fahrenheit                   <
>     DP     - Dew Point in Fahrenheit                     <
>     RH     - Relative Humidity in Percent                <
>     WIND   - Direction (from) and Speed in MPH           <
>     PRES   - Mean Sea Level Pressure (inches of Hg)      <
>     WCI    - Wind Chill Index                            <
>     VSB    - VISIBILITY IN MILES                         <
>     HX     - HEAT INDEX                                  <
>     TC     - TEMPERATURE IN CELSIUS                      <
>     VRB    - VARIABLE WIND DIRECTION                     <
>                                                          <
>>>>>>>>>>>>>>>>>>>>>>>>>>>> KEY <<<<<<<<<<<<<<<<<<<<<<<<<<<




USA.gov is the U.S. government's official web portal to all federal, state and local government web resources and services.